[[{"header":{"parameterUnit":"m.s-1","parameterCategory":1,"la1":30.2991,"la2":30.254,"lo1":-89.0895,"lo2":-89.0444,"dy":0.0017,"dx":0.0017,"nx":28,"ny":28,"refTime":"2024-05-02T21:00:00:Z","depth":0,"parameterNumber":2,"parameterNumberName":"U-component_of_WINDS"},"data":[0,0,0,0,0,0,0,0,0,0,0,0,0,0,0,0,0,0,0,0,0,0,0,0,0,0,0,0,0,0,0,0,0,0,0,0,0,0,0,0,0,0,0,0,0,0,0,0,0,0,0,0,0,0,0,0,0,0,-1.0317,-1.0316,0,-1.0229,-1.0228,-1.0227,-1.017,-1.017,-1.0169,-1.0169,-1.0079,-1.0077,-1.0075,0,0,0,0,0,0,0,0,0,0,0,0,0,-1.0437,-1.0435,-1.0317,-1.0316,-1.0315,-1.0229,-1.0228,-1.0227,-1.017,-1.0169,-1.0169,-1.0169,-1.008,-1.0078,-1.0075,0,0,0,0,0,0,0,0,0,0,0,0,0,-1.0371,-1.0435,-1.0317,-1.0276,-1.0271,-1.0229,-1.0228,-1.0226,-1.017,-1.0169,-1.0169,-1.0168,-1.0081,-1.0078,-1.0075,-1.0067,0,0,-1.0065,-1.0064,0,0,0,0,0,0,0,0,-1.0375,-1.0366,-1.0283,-1.0279,-1.0274,-1.021,-1.0237,-1.0173,-1.017,-1.0209,-1.0169,-1.0168,-1.0123,-1.0117,-1.0101,-1.0063,-1.0059,-1.0065,-1.0063,-1.0062,-1.0061,0,0,0,0,0,0,0,-1.0379,-1.037,-1.0282,-1.0282,-1.0276,-1.0263,-1.0252,-1.0225,-1.017,-1.0205,-1.0201,-1.0191,-1.0121,-1.0104,-1.0099,-1.0057,-1.0065,-1.0063,-1.0061,-1.0059,-1.0008,-1.0009,0,0,0,0,0,0,-1.039,-1.0374,-1.0285,-1.0279,-1.0324,-1.0261,-1.025,-1.0231,-1.017,-1.016,-1.0192,-1.0189,-1.011,-1.0103,-1.0096,-1.0082,-1.0062,-1.0059,-1.0057,-1.0008,-1.0008,-1.0009,0,0,0,0,0,0,-1.0393,-1.0383,-1.0288,-1.0325,-1.0312,-1.0259,-1.0239,-1.0229,-1.0213,-1.016,-1.015,-1.0185,-1.0109,-1.01,-1.0074,-1.0078,-1.0058,-1.0055,-1.0007,-1.0008,-1.0009,-1.0056,0,0,0,0,0,0,-1.0397,-1.0384,-1.038,-1.0326,-1.0311,-1.0269,-1.0239,-1.0228,-1.0208,-1.0203,-1.0151,-1.0142,-1.0108,-1.0079,-1.0071,-1.0074,-1.0053,-1.0007,-1.0008,-1.0008,-1.0054,-1.0058,-1.0062,0,0,0,0,0,-1.0401,-1.0397,-1.038,-1.037,-1.0304,-1.0269,-1.026,-1.0221,-1.0209,-1.0204,-1.017,-1.0144,-1.0079,-1.0077,-1.0068,-1.0069,-1.0006,-1.0007,-1.0008,-1.0052,-1.0057,-1.0062,0,0,0,0,0,0,-1.0453,-1.0389,-1.037,-1.0348,-1.0314,-1.0259,-1.0253,-1.0228,-1.0197,-1.0194,-1.0147,-1.0136,-1.0115,-1.009,-1.0088,-1.0059,-1.004,-1.0039,-1.0076,-1.0081,-1.0085,-1.0091,-1.005,0,0,0,0,0,-1.0462,-1.0438,-1.0383,-1.0369,-1.0353,-1.0306,-1.0289,-1.0262,-1.0225,-1.0211,-1.0175,-1.0141,-1.0113,-1.0095,-1.0067,-1.005,-1.0038,-1.0046,-1.0051,-1.0054,-1.0054,-1.0044,-1.0047,-1.0012,-1.0012,-1.0012,0,0,-1.048,-1.0442,-1.043,-1.0379,-1.0349,-1.0326,-1.0295,-1.0271,-1.0253,-1.0207,-1.0181,-1.0154,-1.0113,-1.0092,-1.0081,-1.007,-1.0061,-1.0055,-1.0059,-1.0056,-1.0045,-1.0049,-1.0052,-1.0013,-1.0013,-1.0013,0,0,-1.0501,-1.047,-1.0454,-1.0426,-1.0382,-1.0351,-1.0348,-1.0297,-1.0277,-1.025,-1.0215,-1.0194,-1.0146,-1.0118,-1.0098,-1.011,-1.0085,-1.0102,-1.0123,-1.0114,-1.0117,-1.0119,-1.0123,-1.0125,-1.0102,-1.0102,-1.0102,0,-1.0529,-1.0492,-1.045,-1.0429,-1.0408,-1.0365,-1.035,-1.0324,-1.0274,-1.026,-1.0249,-1.0189,-1.0158,-1.0131,-1.0134,-1.0119,-1.0114,-1.0107,-1.012,-1.0121,-1.0123,-1.0127,-1.0128,-1.0105,-1.0104,-1.0104,-1.0104,0,-1.0529,-1.0504,-1.0497,-1.0449,-1.0427,-1.0409,-1.0365,-1.0348,-1.0323,-1.0294,-1.0267,-1.0229,-1.0192,-1.0184,-1.0159,-1.0153,-1.0147,-1.0128,-1.0108,-1.0129,-1.0132,-1.0133,-1.0108,-1.0107,-1.0106,-1.0106,0,0,-1.0579,-1.0509,-1.0507,-1.0485,-1.0434,-1.0414,-1.0395,-1.0359,-1.0345,-1.0312,-1.0295,-1.0256,-1.0239,-1.0216,-1.0188,-1.018,-1.0192,-1.0162,-1.016,-1.0169,-1.0183,-1.0198,-1.02,-1.0175,-1.0175,-1.0175,-1.0187,0,-1.0592,-1.0554,-1.0517,-1.0493,-1.0469,-1.0429,-1.0412,-1.0379,-1.0351,-1.0328,-1.0297,-1.0271,-1.0249,-1.0235,-1.0226,-1.0193,-1.0194,-1.0191,-1.0159,-1.0158,-1.017,-1.0202,-1.0217,-1.0229,-1.0188,-1.0188,-1.0188,0,-1.0603,-1.0571,-1.0545,-1.0497,-1.0486,-1.0471,-1.0435,-1.0413,-1.0376,-1.0356,-1.0331,-1.0302,-1.028,-1.0263,-1.0232,-1.0231,-1.0216,-1.0198,-1.0197,-1.0192,-1.0174,-1.0198,-1.0232,-1.0235,-1.0189,-1.0189,-1.0189,0,-1.0643,-1.0594,-1.0572,-1.0554,-1.0497,-1.0488,-1.0464,-1.0426,-1.0407,-1.0376,-1.0363,-1.033,-1.0312,-1.0288,-1.0251,-1.0241,-1.0224,-1.0204,-1.0208,-1.0209,-1.0205,-1.0206,-1.0238,-1.0196,-1.0196,-1.0196,-1.0196,0,-1.0661,-1.0647,-1.0589,-1.0575,-1.0558,-1.0515,-1.05,-1.0472,-1.0439,-1.042,-1.0383,-1.0366,-1.0318,-1.0295,-1.0266,-1.0245,-1.0237,-1.0221,-1.0214,-1.0224,-1.0227,-1.0214,-1.0212,-1.0196,-1.0196,-1.0196,-1.0196,0,-1.0703,-1.0663,-1.0637,-1.0585,-1.0572,-1.0562,-1.0518,-1.0504,-1.0474,-1.045,-1.0442,-1.0396,-1.0367,-1.0328,-1.0287,-1.0267,-1.0251,-1.0239,-1.0264,-1.0259,-1.0265,-1.0266,-1.029,-1.0291,-1.0249,-1.0249,-1.025,0,-1.0717,-1.0705,-1.0653,-1.0637,-1.0614,-1.059,-1.057,-1.0528,-1.0509,-1.0466,-1.0457,-1.0426,-1.0399,-1.0356,-1.0318,-1.0287,-1.0274,-1.0285,-1.0269,-1.0281,-1.0275,-1.0276,-1.0275,-1.0289,-1.029,-1.029,-1.0291,0,-1.0748,-1.0729,-1.0702,-1.0668,-1.0646,-1.0618,-1.0587,-1.0577,-1.0529,-1.051,-1.048,-1.0459,-1.0418,-1.0388,-1.0352,-1.0328,-1.0301,-1.0296,-1.0295,-1.0306,-1.0321,-1.0313,-1.0274,-1.0295,-1.0295,-1.0295,-1.0294,-1.0294,-1.0776,-1.0763,-1.0725,-1.0696,-1.0669,-1.0642,-1.0626,-1.0595,-1.0569,-1.0532,-1.0509,-1.0481,-1.0445,-1.0394,-1.0371,-1.0349,-1.0338,-1.0337,-1.0336,-1.0337,-1.0341,-1.0325,-1.0342,-1.0342,-1.0342,-1.0341,-1.0341,0,-1.0804,-1.0778,-1.0752,-1.0711,-1.0689,-1.0666,-1.0632,-1.0615,-1.059,-1.0558,-1.0532,-1.0499,-1.047,-1.0431,-1.0399,-1.0389,-1.0376,-1.0382,-1.0382,-1.0377,-1.0352,-1.0356,-1.0393,-1.0393,-1.0393,-1.0393,-1.0393,-1.0393,-1.0817,-1.0795,-1.0771,-1.0736,-1.0709,-1.0681,-1.0664,-1.0639,-1.0613,-1.0578,-1.0553,-1.0528,-1.0493,-1.0458,-1.0431,-1.042,-1.041,-1.042,-1.0406,-1.0383,-1.0379,-1.0374,-1.0378,-1.0418,-1.0418,-1.0432,-1.0432,-1.0433]},{"header":{"parameterUnit":"m.s-1","parameterCategory":1,"la1":30.2991,"la2":30.254,"lo1":-89.0895,"lo2":-89.0444,"dy":0.0017,"dx":0.0017,"nx":28,"ny":28,"refTime":"2024-05-02T21:00:00:Z","depth":0,"parameterNumber":3,"parameterNumberName":"V-component_of_WINDS"},"data":[0,0,0,0,0,0,0,0,0,0,0,0,0,0,0,0,0,0,0,0,0,0,0,0,0,0,0,0,0,0,0,0,0,0,0,0,0,0,0,0,0,0,0,0,0,0,0,0,0,0,0,0,0,0,0,0,0,0,2.7853,2.7853,0,2.7891,2.7892,2.7892,2.7935,2.7936,2.7936,2.7937,2.7973,2.7973,2.7973,0,0,0,0,0,0,0,0,0,0,0,0,0,2.7814,2.7814,2.7853,2.7853,2.7854,2.7891,2.7892,2.7892,2.7935,2.7936,2.7937,2.7937,2.7973,2.7973,2.7973,0,0,0,0,0,0,0,0,0,0,0,0,0,2.7839,2.7814,2.7853,2.788,2.7883,2.7891,2.7892,2.7892,2.7935,2.7936,2.7937,2.7938,2.7973,2.7973,2.7974,2.7957,0,0,2.7975,2.7975,0,0,0,0,0,0,0,0,2.7837,2.784,2.7875,2.7878,2.7881,2.791,2.7891,2.7914,2.7935,2.7915,2.7937,2.7938,2.7951,2.7953,2.7958,2.7959,2.7961,2.7975,2.7976,2.7976,2.7976,0,0,0,0,0,0,0,2.7836,2.7839,2.7868,2.7876,2.7879,2.7889,2.7894,2.7896,2.7927,2.7917,2.792,2.7924,2.7952,2.7957,2.7959,2.7961,2.7975,2.7976,2.7976,2.7976,2.7951,2.795,0,0,0,0,0,0,2.783,2.7837,2.7867,2.7869,2.7861,2.7889,2.7894,2.7899,2.7927,2.7932,2.7923,2.7926,2.7956,2.7959,2.7961,2.7944,2.7976,2.7976,2.7977,2.7952,2.7951,2.795,0,0,0,0,0,0,2.7829,2.7833,2.7865,2.7854,2.7859,2.7889,2.7894,2.79,2.7905,2.7932,2.7937,2.7923,2.7957,2.796,2.7958,2.7946,2.7976,2.7977,2.7953,2.7952,2.7951,2.7911,0,0,0,0,0,0,2.7828,2.7832,2.7827,2.7854,2.7859,2.7863,2.7893,2.79,2.7906,2.791,2.7933,2.7938,2.7958,2.7957,2.7959,2.7947,2.7977,2.7955,2.7953,2.7951,2.7913,2.7908,2.7904,0,0,0,0,0,2.7826,2.7813,2.7826,2.783,2.7854,2.7862,2.7865,2.789,2.7905,2.79,2.7917,2.7937,2.7947,2.7957,2.7959,2.7947,2.7956,2.7953,2.7951,2.7916,2.7909,2.7904,0,0,0,0,0,0,2.7783,2.7817,2.7832,2.7827,2.7842,2.787,2.7864,2.7882,2.7892,2.7895,2.7924,2.7929,2.7924,2.7935,2.7946,2.7933,2.7954,2.7952,2.7926,2.7921,2.7916,2.7913,2.7978,0,0,0,0,0,2.7773,2.7778,2.7807,2.78,2.7807,2.7834,2.7838,2.7856,2.7872,2.7878,2.7895,2.7908,2.7915,2.7918,2.7925,2.7915,2.7921,2.7908,2.7903,2.7899,2.7897,2.7893,2.7888,2.7943,2.7943,2.7943,0,0,2.7752,2.7771,2.7772,2.7792,2.7805,2.7809,2.7839,2.7841,2.7844,2.7878,2.7878,2.7891,2.7908,2.7902,2.79,2.7911,2.7883,2.7896,2.7893,2.7893,2.789,2.7885,2.7881,2.7941,2.7942,2.7942,0,0,2.7716,2.7731,2.7727,2.774,2.776,2.7779,2.7777,2.7803,2.7813,2.7814,2.7839,2.7842,2.7853,2.7864,2.7871,2.7839,2.7858,2.784,2.7816,2.7811,2.7807,2.7803,2.7793,2.7788,2.7838,2.7838,2.7838,0,2.7687,2.7695,2.7722,2.7724,2.7732,2.7764,2.776,2.777,2.7791,2.7795,2.7807,2.7821,2.7835,2.7832,2.7825,2.7829,2.7829,2.7838,2.7806,2.7802,2.7799,2.7789,2.7785,2.7836,2.7836,2.7837,2.7837,0,2.7659,2.7664,2.7658,2.7679,2.7686,2.7685,2.7711,2.7715,2.7732,2.7748,2.7749,2.7766,2.7777,2.7778,2.7794,2.7778,2.7784,2.78,2.7822,2.7791,2.7783,2.7779,2.7833,2.7834,2.7834,2.7835,0,0,2.7597,2.7634,2.7631,2.7641,2.7666,2.767,2.7669,2.7682,2.7685,2.7698,2.7698,2.7706,2.7722,2.7729,2.7747,2.7743,2.7718,2.776,2.7761,2.7752,2.7701,2.769,2.7685,2.773,2.7729,2.7729,2.77,0,2.7566,2.7569,2.7594,2.759,2.7595,2.7625,2.7625,2.7639,2.7654,2.766,2.7676,2.7682,2.7702,2.7707,2.7704,2.7721,2.7708,2.7724,2.773,2.773,2.7726,2.768,2.7668,2.764,2.7697,2.7696,2.7696,0,2.753,2.7543,2.754,2.7565,2.7568,2.7568,2.7581,2.7587,2.7603,2.7615,2.7624,2.7644,2.7644,2.7664,2.7665,2.7676,2.768,2.7688,2.7688,2.769,2.7712,2.7682,2.7632,2.7628,2.7691,2.7691,2.7691,0,2.7486,2.7502,2.7503,2.751,2.754,2.7539,2.755,2.7568,2.7575,2.7586,2.759,2.7601,2.7607,2.7614,2.7637,2.7649,2.7635,2.7657,2.7644,2.7644,2.7641,2.7641,2.7591,2.7642,2.7642,2.7642,2.7642,0,2.745,2.7447,2.7484,2.7484,2.7481,2.7509,2.7505,2.752,2.7535,2.7538,2.7564,2.7566,2.7595,2.76,2.7617,2.7615,2.7617,2.7626,2.7631,2.7625,2.7624,2.7628,2.7631,2.7641,2.7641,2.7641,2.7642,0,2.7401,2.7425,2.7428,2.7456,2.7463,2.7459,2.7483,2.7484,2.7501,2.7504,2.7506,2.7533,2.754,2.7563,2.7575,2.7586,2.758,2.7588,2.7575,2.7578,2.7565,2.7566,2.7517,2.7512,2.7565,2.7564,2.7564,0,2.7376,2.7375,2.7403,2.7408,2.7419,2.7425,2.7432,2.7459,2.7465,2.7485,2.7483,2.7492,2.7502,2.7511,2.7531,2.7541,2.755,2.7532,2.7551,2.7545,2.7551,2.7551,2.7551,2.7528,2.7527,2.7527,2.7526,0,2.733,2.7343,2.7352,2.7366,2.7374,2.7386,2.7399,2.7401,2.7431,2.7436,2.7445,2.7452,2.7465,2.7474,2.7487,2.7498,2.7517,2.752,2.7518,2.7512,2.7504,2.7509,2.7564,2.7521,2.7522,2.7522,2.7522,2.7522,2.7293,2.7294,2.7314,2.7324,2.7337,2.7349,2.7352,2.7369,2.7377,2.7391,2.7406,2.7413,2.743,2.7449,2.7459,2.7464,2.7474,2.7471,2.747,2.7469,2.7466,2.7503,2.7466,2.7466,2.7466,2.7467,2.7467,0,2.725,2.7264,2.7273,2.7292,2.7299,2.7318,2.7333,2.7338,2.7344,2.7359,2.7368,2.7377,2.7386,2.7406,2.7417,2.7417,2.7426,2.7419,2.742,2.7422,2.7456,2.7457,2.7412,2.7412,2.7412,2.7412,2.7412,2.7412,2.7228,2.723,2.7245,2.7253,2.7268,2.7276,2.7283,2.7294,2.7306,2.7316,2.7324,2.7338,2.7355,2.7367,2.7376,2.7381,2.7384,2.7375,2.7383,2.7414,2.742,2.7425,2.7426,2.7375,2.7375,2.7349,2.7349,2.7348]}]]